Lid_Strength_Index
14 14 14 14 14 15 15 14 14 14 15 16 16 16 16 17 18 18 18 19 19 19 19 19 20 20 20 20 19 19 20 21 23 21 20 20 20 19 19 18 17 17 17
14 15 14 14 15 15 14 14 14 14 15 15 15 16 17 17 18 18 19 19 19 20 20 20 20 19 21 20 20 20 20 20 21 23 21 21 20 19 19 18 17 16 16
14 15 16 16 15 14 13 14 14 14 16 15 15 16 16 17 18 18 18 19 19 19 19 20 20 20 21 21 21 21 21 20 21 22 22 20 20 19 18 17 17 17 16
14 15 15 15 15 14 14 15 15 14 15 15 15 16 17 17 17 18 18 19 18 18 19 19 20 20 20 21 21 21 21 22 21 22 21 20 19 18 18 18 18 17 17
14 13 14 14 14 14 14 14 15 16 16 15 16 16 16 17 17 18 18 18 19 19 19 19 19 19 18 19 21 21 21 22 21 21 21 20 19 19 19 18 18 18 17
15 15 14 14 14 15 14 15 16 16 16 16 17 17 17 17 15 15 17 19 19 20 20 20 20 20 18 17 17 17 18 21 23 22 21 20 19 18 18 18 18 19 20
14 15 14 13 13 14 15 15 16 16 16 17 16 17 17 17 14 14 15 18 18 19 20 20 20 20 20 18 16 15 15 15 16 18 23 19 19 18 18 18 18 18 18
14 14 14 14 13 15 16 16 17 16 17 17 17 17 18 18 14 13 14 18 19 19 19 20 20 20 19 18 18 18 18 18 17 17 18 18 17 17 16 16 17 19 19
14 15 15 16 15 16 17 17 18 17 17 17 17 18 18 18 14 13 15 19 19 20 20 19 19 19 17 16 19 20 20 18 16 14 15 15 15 14 15 19 22 23 23
13 15 16 17 17 17 16 18 18 17 17 17 18 18 18 18 14 13 16 18 20 20 19 18 17 18 16 15 19 20 20 19 18 20 19 18 18 19 18 19 21 24 23
15 15 15 17 17 16 17 17 17 17 19 18 19 19 18 18 16 13 15 18 19 19 20 20 19 16 16 15 15 19 19 18 19 21 22 22 21 21 20 19 19 19 22
17 15 15 16 17 17 17 17 17 18 19 19 19 20 19 17 15 12 13 16 16 19 19 19 19 16 15 15 15 16 16 18 23 24 24 24 23 22 20 19 18 18 18
18 18 16 15 17 17 17 18 18 19 20 20 19 20 20 19 16 12 13 14 15 18 19 18 17 15 15 15 15 16 19 22 25 27 25 24 22 20 19 20 19 19 18
21 20 18 16 16 17 17 18 18 19 18 19 19 20 20 20 18 15 14 16 16 18 18 18 17 16 17 19 18 19 21 22 22 23 23 22 21 21 21 20 21 20 20
21 21 20 18 16 16 18 18 18 17 17 18 18 18 20 21 18 15 14 17 17 19 19 19 19 21 22 22 23 23 22 22 23 23 23 22 22 21 21 20 20 21 22
22 22 21 20 19 16 17 17 14 14 14 14 15 16 18 17 15 14 13 14 15 16 21 22 23 23 23 23 23 23 23 23 23 23 23 22 22 22 21 20 20 21 21
24 23 22 21 20 18 17 18 18 16 13 14 13 14 15 16 15 14 13 13 14 17 22 23 23 23 23 23 23 24 24 23 23 23 23 23 22 22 22 21 21 20 21
24 23 23 22 20 18 17 18 18 18 18 17 14 14 14 15 14 14 13 13 17 19 22 22 23 23 24 24 24 25 25 24 24 24 24 24 26 24 23 23 21 22 21
24 24 23 22 21 20 17 17 17 17 17 18 17 14 15 14 14 14 13 16 18 24 23 24 24 25 26 25 25 27 27 27 26 26 27 26 27 25 24 23 21 21 20
23 23 22 22 22 20 17 16 17 18 18 18 18 16 16 16 16 16 15 18 22 24 24 26 27 27 27 27 28 28 28 29 29 28 27 26 25 25 23 23 22 21 20
23 22 22 22 21 19 16 17 17 18 18 18 17 16 15 17 16 17 21 23 24 25 26 27 27 28 28 29 29 30 30 28 28 28 28 27 26 26 24 22 22 20 20
21 21 21 21 20 19 16 16 16 17 17 16 16 15 12 16 21 22 23 25 25 25 26 27 28 28 29 29 29 29 29 29 30 30 29 27 26 25 24 22 21 20 21
20 20 20 20 19 16 17 16 16 16 16 16 15 16 20 22 23 23 25 26 27 27 27 27 28 29 30 30 30 29 30 30 28 30 29 28 27 26 24 22 20 21 22
19 19 20 19 17 17 17 18 17 18 17 16 20 21 22 22 23 24 25 26 27 28 28 29 29 28 29 30 31 32 31 30 31 31 30 28 27 25 22 20 21 22 22
19 19 19 18 18 19 19 20 20 18 20 21 22 23 23 23 24 25 26 26 27 28 29 29 28 28 28 30 30 29 29 26 27 27 27 26 25 23 20 21 22 22 23
21 21 21 21 21 21 21 21 21 22 23 23 23 23 23 24 25 26 26 27 27 27 27 27 27 29 29 28 28 27 25 22 23 23 23 20 18 19 20 22 25 24 23